User: anonymous   Login
Location: Parc des �les de St-Timoth�e
(45.2924°N, 74.0481°W)
Time: 18:23:26
(UTC-04:00)
Language:

Cosmos 2173 Rocket - Orbit

View from above orbital plane
View from above orbital plane
View from above satellite
View from above satellite

Ground track
Ground track

The orbit data is extracted from the following two-line orbital elements,

1 21797U 91081B   16146.97065882 +.00000090 +00000-0 +74032-4 0  9997
2 21797 082.9532 349.7406 0039442 093.2741 014.5582 13.77372320230823
Epoch (UTC): 25 May 2016 23:17:44
Eccentricity: 0.0039442
inclination: 82.9532°
perigee height: 944 km
apogee height: 1002 km
right ascension of ascending node: 349.7406°
argument of perigee: 93.2741°
revolutions per day: 13.77372320
mean anomaly at epoch: 14.5582°
orbit number at epoch: 23082

The dashed part of the orbit path shows where the satellite is in the earth's shadow,  

DLR